Home   Weather   Târgu Mureş   Past weeks

Flag for Romania Past Weather in Târgu Mureş, Romania — Yesterday and Last 2 Weeks

Now
43 °F

Fog.


Feels Like: 39 °F
Forecast: 34 / 39 °F
Wind: 7 mph from East

Location: Tirgu Mures Airport

Current Time: Dec 11, 2016 at 12:21:19 pm

Latest Report: Dec 11, 2016 at 12:00 pm


Visibility: 3 mi

Pressure: 30.04 "Hg

Humidity: 76%

Dew Point: 36 °F

Location of Târgu MureşLocation

Past Weather in Târgu Mureş — Graph

°F

Târgu Mureş Temperature Yesterday

Maximum temperature yesterday: 36 °F (at 12:00 pm)
Minimum temperature yesterday: 25 °F (at 12:00 am)
Average temperature yesterday: 31 °F

High & Low Weather Summary for the Past Weeks

 TemperatureHumidityPressure
High54 °F (Nov 26, 2:00 pm)100% (Nov 26, 8:00 pm)30.74 "Hg (Nov 26, 8:00 pm)
Low14 °F (Dec 5, 7:30 am)47% (Nov 26, 3:30 pm)29.50 "Hg (Dec 2, 9:00 am)
Average29 °F84%30.23 "Hg
* Reported Nov 26 11:00 am — Dec 11 11:00 am, Târgu Mureş, Weather by CustomWeather, © 2016

Note: Actual official high and low records may vary slightly from our data, if they occured in-between our weather recording intervals... More about our weather records

Advertising

Târgu Mureş Weather History for the Previous 24 Hours

Scroll right to see more
 ConditionsComfort  
Time TempWeatherWind HumidityBarometerVisibility
11:00 am
Sun, Dec 11
41 °FFog.6 mph81%30.07 "Hg3 mi
10:30 am37 °FFog.6 mph87%30.07 "Hg2 mi
10:00 am36 °FFog.3 mph93%30.09 "Hg1 mi
9:30 am34 °FFog.5 mph100%30.09 "Hg1 mi
9:00 am32 °FIce fog.3 mph93%30.09 "Hg1 mi
8:30 am30 °FIce fog.5 mph93%30.09 "Hg1 mi
8:00 am32 °FIce fog.5 mph93%30.09 "Hg1 mi
7:30 am34 °FFog.5 mph93%30.09 "Hg2 mi
7:00 am34 °FFog.3 mph93%30.12 "Hg2 mi
6:30 am34 °FFog.5 mph93%30.12 "Hg2 mi
6:00 am34 °FFog.5 mph93%30.12 "Hg2 mi
5:30 am34 °FFog.2 mph93%30.12 "Hg2 mi
5:00 am34 °FFog.3 mph93%30.12 "Hg2 mi
4:30 am34 °FFog.5 mph93%30.12 "Hg2 mi
4:00 am34 °FPartly cloudy.5 mph93%30.12 "Hg1 mi
3:30 am34 °FFog.3 mph93%30.15 "Hg1 mi
3:00 am32 °FIce fog.5 mph93%30.15 "Hg1 mi
2:30 am34 °FFog.3 mph93%30.15 "Hg2 mi
2:00 am34 °FFog.3 mph93%30.15 "Hg2 mi
1:30 am34 °FFog.5 mph93%30.15 "Hg2 mi
1:00 am34 °FFog.3 mph87%30.15 "Hg2 mi
12:30 am34 °FFog.5 mph87%30.18 "Hg2 mi
12:00 am32 °FIce fog.5 mph93%30.18 "Hg1 mi
11:30 pm
Sat, Dec 10
32 °FIce fog.5 mph93%30.18 "Hg2 mi
11:00 pm32 °FIce fog.3 mph93%30.18 "Hg2 mi
10:30 pm32 °FIce fog.3 mph93%30.21 "Hg2 mi
10:00 pm32 °FIce fog.No wind93%30.21 "Hg2 mi
9:30 pm32 °FIce fog.No wind87%30.21 "Hg2 mi
9:00 pm32 °FIce fog.2 mph87%30.21 "Hg2 mi
8:30 pm30 °FIce fog.3 mph93%30.21 "Hg2 mi
8:00 pm32 °FIce fog.3 mph87%30.21 "Hg2 mi
7:30 pm27 °FIce fog.No wind93%30.24 "Hg2 mi
7:00 pm28 °FIce fog.No wind86%30.24 "Hg2 mi
6:30 pm28 °FIce fog.No wind86%30.21 "Hg2 mi
6:00 pm30 °FIce fog.No wind93%30.21 "Hg2 mi
5:30 pm32 °FIce fog.No wind87%30.21 "Hg2 mi
5:00 pm32 °FIce fog.No wind80%30.21 "Hg3 mi
4:30 pm34 °FFog.No wind81%30.21 "Hg2 mi
4:00 pm36 °FFog.3 mph75%30.24 "Hg2 mi
3:30 pm36 °FFog.3 mph75%30.24 "Hg2 mi
3:00 pm36 °FFog.5 mph75%30.24 "Hg3 mi
2:30 pm36 °FFog.5 mph75%30.24 "Hg2 mi
2:00 pm36 °FFog.5 mph75%30.24 "Hg3 mi
1:30 pm36 °FFog.6 mph75%30.24 "Hg3 mi
1:00 pm36 °FFog.6 mph75%30.27 "Hg3 mi
12:30 pm36 °FFog.6 mph75%30.27 "Hg3 mi
12:00 pm36 °FFog.6 mph75%30.27 "Hg2 mi
Weather by CustomWeather, © 2016

See weather overviewHow to use our weather pages